EW7154 Weather Reports


time (UTC)temp
C
wind
direction
speed
KPH
gust
KPH
rain 1hr
cm
rain 24hr
cm
rain mn
cm
humidity
%
barometer
mb
20260906095144 17 22 0.0 0.0 0.00 0.00 0.00 96 1020.0
20260906094243 17 22 0.0 1.6 0.00 0.00 0.00 96 1019.6
20260906092245 18 45 0.0 0.0 0.00 0.00 0.00 95 1019.6
20260906091245 18 45 0.0 0.0 0.00 0.00 0.00 95 1019.6
20260906090344 18 360 0.0 0.0 0.00 0.00 0.00 95 1019.6
20260906085344 18 67 3.2 6.4 0.00 0.00 0.00 95 1019.6
20260906084344 18 67 3.2 6.4 0.00 0.00 0.00 95 1019.6
20260906082444 18 47 1.6 6.4 0.00 0.00 0.00 93 1019.3
20260906081446 19 64 6.4 14.5 0.00 0.00 0.00 93 1019.2
20260906074445 20 86 4.8 8.0 0.00 0.00 0.00 91 1019.2
20260906073444 20 80 4.8 6.4 0.00 0.00 0.00 91 1019.2
20260906072445 20 84 6.4 9.7 0.00 0.00 0.00 90 1019.6
20260906071444 20 28 1.6 4.8 0.00 0.00 0.00 90 1019.2
20260906065545 20 49 3.2 8.0 0.00 0.00 0.00 90 1019.2
20260906064546 20 75 4.8 6.4 0.00 0.00 0.00 89 1019.2
20260906063643 20 20 0.0 6.4 0.00 0.00 0.00 89 1019.2
20260906062643 21 71 4.8 8.0 0.00 0.00 0.00 89 1019.6
20260906061743 21 39 3.2 6.4 0.00 0.00 0.00 89 1019.2
20260906061644 21 74 6.4 11.3 0.00 0.00 0.00 89 1019.2
20260906060646 21 15 3.2 6.4 0.00 0.00 0.00 89 1019.2
20260906060544 21 8 4.8 11.3 0.00 0.00 0.00 89 1019.2
20260906055544 21 26 4.8 9.7 0.00 0.00 0.00 88 1018.9
20260906053546 21 36 3.2 6.4 0.00 0.00 0.00 88 1018.9
20260906052644 21 83 6.4 8.0 0.00 0.00 0.00 88 1018.6
20260906051645 21 18 3.2 9.7 0.00 0.00 0.00 88 1018.5
20260906050742 21 64 1.6 4.8 0.00 0.00 0.00 87 1018.5
20260906045745 21 355 0.0 3.2 0.00 0.00 0.00 87 1018.5
20260906044844 22 45 0.0 1.6 0.00 0.00 0.00 87 1018.5
20260906043843 22 67 4.8 6.4 0.00 0.00 0.00 86 1018.5
20260906042843 22 44 1.6 6.4 0.00 0.00 0.00 86 1018.5
20260906041844 22 45 3.2 4.8 0.00 0.00 0.00 86 1018.5
20260906040944 22 55 0.0 6.4 0.00 0.00 0.00 86 1018.5
20260906035043 22 62 4.8 8.0 0.00 0.00 0.00 85 1018.2
20260906034044 22 55 3.2 6.4 0.00 0.00 0.00 85 1018.2
20260906032145 22 74 4.8 6.4 0.00 0.00 0.00 85 1018.2
20260906031145 22 44 1.6 4.8 0.00 0.00 0.00 85 1017.9
20260906030244 22 45 1.6 6.4 0.00 0.00 0.00 84 1018.2
20260906030144 22 42 3.2 6.4 0.00 0.00 0.00 84 1018.2
20260906025242 22 61 1.6 6.4 0.00 0.00 0.00 84 1017.9
20260906023243 22 41 3.2 6.4 0.00 0.00 0.00 84 1017.9
20260906022243 22 30 1.6 6.4 0.00 0.00 0.00 84 1017.9
20260906021245 22 67 3.2 6.4 0.00 0.00 0.00 84 1017.9
20260906020244 22 74 3.2 8.0 0.00 0.00 0.00 84 1017.9
20260906015344 22 71 1.6 8.0 0.00 0.00 0.00 84 1017.9
20260906014343 22 63 1.6 8.0 0.00 0.00 0.00 84 1017.5
20260906013344 22 70 9.7 16.1 0.00 0.00 0.00 84 1017.5
20260906012345 22 60 1.6 4.8 0.00 0.00 0.00 85 1017.5
20260906010344 22 90 4.8 8.0 0.00 0.00 0.00 85 1017.2
20260906005443 22 58 3.2 9.7 0.00 0.00 0.00 84 1017.2
20260906003444 23 66 4.8 9.7 0.00 0.00 0.00 84 1016.8
20260906002444 23 54 6.4 16.1 0.00 0.00 0.00 84 1016.8
20260906001443 23 66 8.0 17.7 0.00 0.00 0.00 84 1016.8
20260905235444 23 33 4.8 9.7 0.00 0.00 0.00 82 1016.5
20260905234442 24 27 8.0 20.9 0.00 0.00 0.00 81 1016.5
20260905233443 25 38 6.4 12.9 0.00 0.00 0.00 79 1016.1
20260905232444 25 30 6.4 12.9 0.00 0.00 0.00 77 1016.1
20260905231542 26 68 8.0 14.5 0.00 0.00 0.00 76 1016.1
20260905230545 26 66 8.0 14.5 0.00 0.00 0.00 75 1016.1
20260905225643 27 19 1.6 6.4 0.00 0.00 0.00 73 1015.8
20260905224643 27 71 9.7 19.3 0.00 0.00 0.00 71 1015.8
20260905223643 27 71 3.2 6.4 0.00 0.00 0.00 71 1015.4
20260905222741 28 6 4.8 8.0 0.00 0.00 0.00 69 1015.1
20260905221744 28 52 6.4 11.3 0.00 0.00 0.00 67 1015.1
20260905220742 28 49 3.2 8.0 0.00 0.00 0.00 66 1015.1
20260905215841 28 57 3.2 11.3 0.00 0.00 0.00 66 1015.1
20260905215742 28 27 4.8 11.3 0.00 0.00 0.00 66 1015.1
20260905214744 28 35 6.4 12.9 0.00 0.00 0.00 68 1015.1
20260905212844 28 347 6.4 12.9 0.00 0.00 0.00 70 1015.1
20260905211844 29 356 9.7 14.5 0.00 0.00 0.00 70 1014.7
20260905205844 28 39 4.8 9.7 0.00 0.00 0.00 69 1014.7
20260905203943 29 14 0.0 3.2 0.00 0.00 0.00 68 1014.8
20260905202944 30 331 4.8 11.3 0.00 0.00 0.00 67 1014.8
20260905201946 29 328 9.7 16.1 0.00 0.00 0.00 69 1014.7
20260905200944 30 48 6.4 14.5 0.00 0.00 0.00 69 1015.1
20260905195944 29 7 3.2 8.0 0.00 0.00 0.00 71 1015.1
20260905195041 28 5 3.2 6.4 0.00 0.00 0.00 71 1015.1
20260905194042 29 21 3.2 12.9 0.00 0.00 0.00 68 1015.1
20260905193044 30 17 3.2 6.4 0.00 0.00 0.00 66 1015.1
20260905192143 30 71 4.8 9.7 0.00 0.00 0.00 68 1015.1
20260905191143 29 360 3.2 6.4 0.00 0.00 0.00 67 1015.1
20260905190242 30 31 3.2 6.4 0.00 0.00 0.00 66 1015.1
20260905185242 31 352 4.8 9.7 0.00 0.00 0.00 63 1015.1
20260905185141 31 13 4.8 9.7 0.00 0.00 0.00 63 1015.1
20260905184142 31 357 4.8 8.0 0.00 0.00 0.00 63 1015.4
20260905183143 31 322 3.2 6.4 0.00 0.00 0.00 66 1015.4
20260905182145 30 4 4.8 6.4 0.00 0.00 0.00 69 1015.4
20260905181145 30 67 0.0 1.6 0.00 0.00 0.00 66 1015.4
20260905174342 31 270 1.6 3.2 0.00 0.00 0.00 67 1015.8
20260905173345 30 74 1.6 4.8 0.00 0.03 0.00 66 1015.8
20260905172443 31 314 3.2 8.0 0.00 0.08 0.00 65 1015.8
20260905171443 31 44 1.6 4.8 0.00 0.08 0.00 66 1015.8
20260905170445 31 309 1.6 6.4 0.00 0.08 0.00 67 1016.1
20260905165446 30 289 0.0 3.2 0.00 0.08 0.00 69 1016.1
20260905164444 30 292 0.0 0.0 0.00 0.08 0.00 69 1016.1
20260905163444 30 67 0.0 0.0 0.00 0.08 0.00 71 1016.1
20260905162442 28 112 0.0 1.6 0.00 0.08 0.00 74 1016.1
20260905161541 28 293 0.0 4.8 0.00 0.08 0.00 76 1016.2
20260905160545 28 90 0.0 0.0 0.00 0.08 0.00 76 1016.1
20260905155543 28 90 0.0 0.0 0.00 0.08 0.00 75 1016.4
20260905154642 28 360 0.0 0.0 0.00 0.08 0.00 76 1016.4
20260905152741 27 29 1.6 4.8 0.00 0.08 0.00 77 1016.1
20260905151743 27 100 1.6 8.0 0.00 0.08 0.00 79 1016.1
20260905150743 26 45 0.0 0.0 0.00 0.08 0.00 81 1016.1
20260905145743 26 46 1.6 4.8 0.00 0.08 0.00 84 1016.1
20260905144743 25 45 1.6 4.8 0.00 0.08 0.00 85 1016.4
20260905143742 25 360 1.6 4.8 0.00 0.08 0.00 85 1016.5
20260905142745 25 35 1.6 4.8 0.00 0.08 0.00 85 1016.1
20260905141743 25 67 0.0 0.0 0.00 0.08 0.00 86 1016.1
20260905135801 23 45 0.0 0.0 0.00 0.08 0.00 88 1016.1
20260905134842 23 45 0.0 0.0 0.00 0.08 0.00 88 1016.1
20260905133844 23 45 1.6 4.8 0.00 0.08 0.00 89 1016.1
20260905132843 23 66 3.2 4.8 0.00 0.08 0.00 89 1016.1
20260905130943 23 67 3.2 6.4 0.00 0.08 0.00 90 1015.8
20260905125943 23 1 1.6 3.2 0.00 0.08 0.00 93 1015.8
20260905125042 23 360 0.0 0.0 0.00 0.08 0.00 94 1015.8
20260905124043 23 360 0.0 0.0 0.00 0.08 0.00 95 1015.7
20260905123043 22 90 0.0 0.0 0.00 0.08 0.00 94 1015.4
20260905121044 22 90 0.0 0.0 0.00 0.08 0.00 95 1015.4
20260905120043 21 90 0.0 0.0 0.00 0.08 0.00 95 1015.4
20260905115142 21 90 0.0 1.6 0.00 0.08 0.00 95 1015.4
20260905115044 21 90 1.6 4.8 0.00 0.08 0.00 95 1015.4
20260905114043 21 22 1.6 3.2 0.00 0.08 0.00 95 1015.4
20260905113141 21 360 0.0 0.0 0.00 0.08 0.00 95 1015.1
20260905112142 21 360 0.0 0.0 0.00 0.08 0.00 95 1015.1
20260905111142 21 360 0.0 0.0 0.00 0.08 0.00 95 1015.1
20260905110143 21 360 0.0 0.0 0.00 0.08 0.00 96 1015.1
20260905105144 21 270 0.0 0.0 0.00 0.08 0.00 96 1014.7
20260905103243 21 45 0.0 0.0 0.00 0.08 0.00 95 1014.7
20260905101344 21 45 0.0 0.0 0.00 0.08 0.00 95 1014.7
20260905100442 21 45 0.0 0.0 0.00 0.08 0.00 95 1014.7